[[{"header":{"parameterUnit":"m.s-1","parameterCategory":2,"la1":30.2991,"la2":30.254,"lo1":-89.0895,"lo2":-89.0444,"dy":0.0017,"dx":0.0017,"nx":28,"ny":28,"refTime":"2026-01-04T03:00:00:Z","depth":"0","parameterNumber":2,"parameterNumberName":"U-component_of_CURRENTS"},"data":[0,0,0,0,0,0,0,0,0,0,0,0,0,0,0,0,0,0,0,0,0,0,0,0,0,0,0,0,0,0,0,0,0,0,0,0,0,0,0,0,0,0,0,0,0,0,0,0,0,0,0,0,0,0,0,0,0,0,-0.2273,-0.2275,0,-0.237,-0.2371,-0.2372,-0.2417,-0.2417,-0.2417,-0.2417,-0.2443,-0.2444,-0.2445,0,0,0,0,0,0,0,0,0,0,0,0,0,-0.2122,-0.2125,-0.2273,-0.2275,-0.2276,-0.237,-0.2371,-0.2372,-0.2417,-0.2417,-0.2417,-0.2417,-0.2443,-0.2444,-0.2445,0,0,0,0,0,0,0,0,0,0,0,0,0,-0.2198,-0.2125,-0.2273,-0.2311,-0.2316,-0.237,-0.2371,-0.2373,-0.2417,-0.2417,-0.2417,-0.2417,-0.2443,-0.2444,-0.2445,-0.2446,0,0,-0.2447,-0.2448,0,0,0,0,0,0,0,0,-0.2194,-0.2203,-0.2304,-0.2309,-0.2314,-0.2384,-0.2328,-0.2395,-0.2417,-0.2376,-0.2417,-0.2417,-0.2418,-0.2421,-0.2437,-0.2447,-0.2448,-0.2447,-0.2448,-0.2448,-0.2449,0,0,0,0,0,0,0,-0.2188,-0.2199,-0.2309,-0.2306,-0.2312,-0.2323,-0.2333,-0.2341,-0.2391,-0.2379,-0.2383,-0.2398,-0.242,-0.2436,-0.2437,-0.2449,-0.2447,-0.2448,-0.2449,-0.2449,-0.2478,-0.2478,0,0,0,0,0,0,-0.2182,-0.2195,-0.2306,-0.2312,-0.2256,-0.2325,-0.2337,-0.2359,-0.2393,-0.24,-0.2398,-0.24,-0.2434,-0.2436,-0.2438,-0.2452,-0.2448,-0.2449,-0.245,-0.2478,-0.2478,-0.2478,0,0,0,0,0,0,-0.2178,-0.2191,-0.2302,-0.2257,-0.2272,-0.2328,-0.2352,-0.2361,-0.2377,-0.2408,-0.2413,-0.2404,-0.2434,-0.2437,-0.2452,-0.2453,-0.245,-0.245,-0.2477,-0.2478,-0.2478,-0.2473,0,0,0,0,0,0,-0.2174,-0.2189,-0.2195,-0.2257,-0.2275,-0.2328,-0.2353,-0.2363,-0.2387,-0.239,-0.2415,-0.2419,-0.2435,-0.2451,-0.2453,-0.2454,-0.2451,-0.2477,-0.2477,-0.2478,-0.2473,-0.2474,-0.2474,0,0,0,0,0,-0.2168,-0.2175,-0.2195,-0.2208,-0.2284,-0.2328,-0.2337,-0.2376,-0.2387,-0.239,-0.2415,-0.2418,-0.2455,-0.2452,-0.2454,-0.2456,-0.2477,-0.2477,-0.2478,-0.2473,-0.2473,-0.2474,0,0,0,0,0,0,-0.2102,-0.2183,-0.2205,-0.2234,-0.2275,-0.2336,-0.2343,-0.2371,-0.2395,-0.2395,-0.2422,-0.2427,-0.2441,-0.2448,-0.2443,-0.2466,-0.2465,-0.2466,-0.2461,-0.2461,-0.2462,-0.247,-0.2452,0,0,0,0,0,-0.2093,-0.2127,-0.2194,-0.2213,-0.2232,-0.2285,-0.2305,-0.2335,-0.237,-0.2381,-0.2403,-0.2424,-0.2445,-0.2452,-0.2468,-0.2477,-0.2485,-0.248,-0.248,-0.248,-0.2489,-0.2503,-0.2506,-0.248,-0.248,-0.248,0,0,-0.2073,-0.2121,-0.2139,-0.2202,-0.2235,-0.2268,-0.2297,-0.2326,-0.2355,-0.2378,-0.2406,-0.2423,-0.2448,-0.2466,-0.2472,-0.2471,-0.249,-0.2481,-0.2481,-0.249,-0.2504,-0.2507,-0.2509,-0.248,-0.248,-0.248,0,0,-0.2054,-0.209,-0.2114,-0.2151,-0.2206,-0.2243,-0.225,-0.2308,-0.2331,-0.2363,-0.239,-0.2415,-0.2436,-0.2468,-0.2484,-0.2494,-0.2491,-0.2486,-0.2494,-0.2508,-0.251,-0.2512,-0.2516,-0.2518,-0.2486,-0.2486,-0.2486,0,-0.2022,-0.2074,-0.2122,-0.2154,-0.2185,-0.2231,-0.2259,-0.229,-0.2345,-0.2367,-0.2366,-0.2426,-0.2445,-0.2487,-0.2495,-0.2496,-0.2494,-0.249,-0.2508,-0.2511,-0.2513,-0.2516,-0.2519,-0.2486,-0.2486,-0.2486,-0.2486,0,-0.2033,-0.207,-0.208,-0.2147,-0.218,-0.2206,-0.2265,-0.2289,-0.2318,-0.2356,-0.2395,-0.2427,-0.2465,-0.2472,-0.2489,-0.2517,-0.2506,-0.2506,-0.2506,-0.2515,-0.2518,-0.2521,-0.2485,-0.2485,-0.2485,-0.2485,0,0,-0.198,-0.2072,-0.2078,-0.211,-0.2182,-0.2211,-0.2252,-0.231,-0.234,-0.2376,-0.2414,-0.246,-0.2474,-0.2494,-0.2514,-0.253,-0.2545,-0.2522,-0.2523,-0.2524,-0.2561,-0.2531,-0.2531,-0.2539,-0.254,-0.2541,-0.2552,0,-0.1975,-0.2035,-0.2086,-0.2133,-0.2169,-0.2223,-0.2262,-0.2316,-0.2356,-0.2396,-0.2435,-0.247,-0.2483,-0.2497,-0.2517,-0.2542,-0.2554,-0.2542,-0.2554,-0.2555,-0.2526,-0.2534,-0.2345,-0.2337,-0.2555,-0.2556,-0.2556,0,-0.1976,-0.2023,-0.2072,-0.2149,-0.2167,-0.2196,-0.2268,-0.2311,-0.2377,-0.2404,-0.2445,-0.2471,-0.2516,-0.2513,-0.2559,-0.2544,-0.2555,-0.2567,-0.2568,-0.2546,-0.2531,-0.2366,-0.2335,-0.222,-0.2561,-0.2561,-0.256,0,-0.1937,-0.2013,-0.2053,-0.208,-0.2167,-0.2192,-0.2238,-0.2311,-0.2349,-0.2408,-0.2429,-0.248,-0.2503,-0.2528,-0.2562,-0.2555,-0.2599,-0.2593,-0.2576,-0.2573,-0.2421,-0.2404,-0.2279,-0.262,-0.262,-0.262,-0.262,0,-0.1928,-0.1957,-0.2035,-0.2059,-0.2101,-0.2171,-0.2217,-0.2267,-0.2333,-0.2376,-0.2426,-0.2456,-0.2505,-0.2538,-0.2561,-0.2579,-0.2599,-0.2582,-0.2578,-0.2413,-0.2396,-0.2298,-0.2318,-0.262,-0.262,-0.262,-0.262,0,-0.1888,-0.194,-0.1984,-0.2064,-0.2085,-0.2117,-0.2199,-0.2239,-0.2298,-0.2351,-0.2366,-0.2436,-0.2481,-0.2527,-0.2572,-0.2572,-0.2529,-0.2597,-0.2399,-0.2372,-0.2246,-0.2275,-0.2268,-0.2215,-0.2573,-0.2572,-0.2571,0,-0.1881,-0.1898,-0.1969,-0.1996,-0.2031,-0.2086,-0.2131,-0.221,-0.2256,-0.234,-0.2363,-0.2418,-0.2444,-0.2498,-0.2499,-0.252,-0.25,-0.2372,-0.2337,-0.2215,-0.2244,-0.2286,-0.2245,-0.2123,-0.2119,-0.2116,-0.2113,0,-0.1858,-0.1872,-0.1911,-0.1962,-0.2006,-0.2056,-0.2123,-0.2147,-0.2243,-0.2275,-0.2322,-0.234,-0.2375,-0.2306,-0.2337,-0.2331,-0.2254,-0.2306,-0.2212,-0.1919,-0.1924,-0.1875,-0.2147,-0.2083,-0.2086,-0.2088,-0.209,-0.2091,-0.1829,-0.1843,-0.1887,-0.193,-0.198,-0.2024,-0.2036,-0.2102,-0.2144,-0.2179,-0.2239,-0.2213,-0.2121,-0.2126,-0.2106,-0.1912,-0.2093,-0.1828,-0.1885,-0.1947,-0.1859,-0.2081,-0.2001,-0.2004,-0.2006,-0.2008,-0.2009,0,-0.1806,-0.1825,-0.186,-0.1908,-0.1939,-0.1977,-0.203,-0.2027,-0.2042,-0.2058,-0.2067,-0.194,-0.1799,-0.1712,-0.1529,-0.1459,-0.144,-0.1436,-0.1386,-0.1376,-0.1547,-0.1481,-0.1244,-0.1244,-0.1244,-0.1244,-0.1244,-0.1244,-0.1797,-0.1812,-0.1829,-0.1857,-0.1884,-0.1889,-0.1898,-0.1887,-0.1875,-0.1795,-0.1717,-0.1703,-0.1496,-0.1382,-0.1141,-0.1095,-0.1069,-0.1083,-0.1185,-0.1203,-0.1241,-0.1277,-0.1212,-0.0922,-0.0922,-0.0874,-0.0873,-0.0873]},{"header":{"parameterUnit":"m.s-1","parameterCategory":2,"la1":30.2991,"la2":30.254,"lo1":-89.0895,"lo2":-89.0444,"dy":0.0017,"dx":0.0017,"nx":28,"ny":28,"refTime":"2026-01-04T03:00:00:Z","depth":"0","parameterNumber":3,"parameterNumberName":"V-component_of_CURRENTS"},"data":[0,0,0,0,0,0,0,0,0,0,0,0,0,0,0,0,0,0,0,0,0,0,0,0,0,0,0,0,0,0,0,0,0,0,0,0,0,0,0,0,0,0,0,0,0,0,0,0,0,0,0,0,0,0,0,0,0,0,-0.0988,-0.0987,0,-0.094,-0.094,-0.0939,-0.09,-0.09,-0.09,-0.09,-0.0742,-0.0738,-0.0734,0,0,0,0,0,0,0,0,0,0,0,0,0,-0.1051,-0.1049,-0.0988,-0.0987,-0.0987,-0.0941,-0.094,-0.0939,-0.09,-0.09,-0.09,-0.09,-0.0743,-0.0739,-0.0734,0,0,0,0,0,0,0,0,0,0,0,0,0,-0.1013,-0.1049,-0.0988,-0.0964,-0.0962,-0.0941,-0.094,-0.0939,-0.09,-0.09,-0.09,-0.0899,-0.0745,-0.0739,-0.0733,-0.0702,0,0,-0.0715,-0.0712,0,0,0,0,0,0,0,0,-0.1015,-0.101,-0.0968,-0.0966,-0.0963,-0.0928,-0.0904,-0.0855,-0.09,-0.0921,-0.09,-0.0899,-0.0796,-0.0786,-0.0776,-0.0694,-0.0688,-0.0714,-0.0711,-0.0708,-0.0706,0,0,0,0,0,0,0,-0.1018,-0.1012,-0.0967,-0.0968,-0.0964,-0.0958,-0.0952,-0.0895,-0.0857,-0.0919,-0.0917,-0.0915,-0.0793,-0.0782,-0.0771,-0.0685,-0.0714,-0.0709,-0.0705,-0.0703,-0.0568,-0.0568,0,0,0,0,0,0,-0.1028,-0.1015,-0.0968,-0.0966,-0.0991,-0.0957,-0.095,-0.0938,-0.086,-0.0849,-0.0916,-0.0914,-0.0792,-0.0778,-0.0765,-0.0732,-0.0708,-0.0702,-0.0699,-0.0568,-0.0568,-0.0568,0,0,0,0,0,0,-0.1029,-0.1024,-0.097,-0.0992,-0.0985,-0.0956,-0.0942,-0.0937,-0.0924,-0.0859,-0.0845,-0.0909,-0.0791,-0.0774,-0.0721,-0.0725,-0.07,-0.0694,-0.0568,-0.0568,-0.0568,-0.0659,0,0,0,0,0,0,-0.1031,-0.1024,-0.102,-0.0992,-0.0984,-0.096,-0.0943,-0.0936,-0.0925,-0.0922,-0.0848,-0.0834,-0.079,-0.0731,-0.0715,-0.0716,-0.069,-0.0568,-0.0568,-0.0568,-0.0656,-0.0662,-0.0667,0,0,0,0,0,-0.1033,-0.1031,-0.102,-0.1014,-0.0978,-0.0961,-0.0955,-0.0933,-0.0925,-0.092,-0.0876,-0.0836,-0.072,-0.0726,-0.0708,-0.0707,-0.0568,-0.0568,-0.0568,-0.0653,-0.0661,-0.0667,0,0,0,0,0,0,-0.1069,-0.1026,-0.1013,-0.1001,-0.0984,-0.0955,-0.0952,-0.0937,-0.09,-0.0894,-0.0833,-0.0815,-0.0771,-0.0724,-0.0732,-0.0668,-0.0638,-0.0635,-0.0709,-0.0715,-0.0721,-0.0723,-0.0685,0,0,0,0,0,-0.1073,-0.1051,-0.1021,-0.1015,-0.1005,-0.0979,-0.097,-0.0954,-0.0921,-0.0905,-0.0857,-0.0803,-0.0757,-0.0726,-0.0676,-0.0636,-0.0605,-0.0624,-0.0629,-0.0635,-0.0623,-0.0592,-0.0594,-0.0568,-0.0568,-0.0568,0,0,-0.109,-0.1062,-0.1053,-0.102,-0.1004,-0.0993,-0.0972,-0.0961,-0.0952,-0.0891,-0.0861,-0.0818,-0.0751,-0.0714,-0.069,-0.0675,-0.0632,-0.0635,-0.064,-0.0625,-0.0592,-0.0595,-0.0597,-0.0568,-0.0568,-0.0568,0,0,-0.1112,-0.1085,-0.1073,-0.1055,-0.1029,-0.101,-0.1008,-0.0977,-0.0962,-0.0929,-0.0889,-0.0854,-0.0775,-0.074,-0.0709,-0.0712,-0.0664,-0.0693,-0.072,-0.069,-0.0693,-0.0694,-0.0689,-0.0689,-0.0695,-0.0695,-0.0695,0,-0.1142,-0.111,-0.1073,-0.1059,-0.105,-0.1019,-0.1015,-0.0996,-0.0954,-0.094,-0.0927,-0.0835,-0.0789,-0.0745,-0.0752,-0.0725,-0.0705,-0.0705,-0.07,-0.07,-0.07,-0.0694,-0.0693,-0.07,-0.0699,-0.0699,-0.0698,0,-0.1146,-0.1126,-0.1123,-0.1086,-0.1074,-0.1067,-0.1036,-0.1021,-0.1,-0.0976,-0.0933,-0.088,-0.0824,-0.0812,-0.0781,-0.0756,-0.0743,-0.0716,-0.0689,-0.0709,-0.0701,-0.0698,-0.0706,-0.0704,-0.0703,-0.0702,0,0,-0.1214,-0.1138,-0.1141,-0.1122,-0.1086,-0.1077,-0.1063,-0.1038,-0.1027,-0.0988,-0.097,-0.0911,-0.0884,-0.0847,-0.0809,-0.0785,-0.0789,-0.0754,-0.0751,-0.0762,-0.0739,-0.065,-0.0639,-0.0761,-0.0761,-0.076,-0.0746,0,-0.1237,-0.1203,-0.1164,-0.1153,-0.1137,-0.1104,-0.1092,-0.1066,-0.1039,-0.1013,-0.0964,-0.0927,-0.0896,-0.0875,-0.0849,-0.0797,-0.078,-0.0795,-0.0706,-0.0704,-0.0632,-0.0631,-0.0531,-0.0502,-0.0743,-0.0743,-0.0743,0,-0.1259,-0.1228,-0.1208,-0.1165,-0.1159,-0.1151,-0.1126,-0.1112,-0.1069,-0.1046,-0.1006,-0.0961,-0.0922,-0.0893,-0.0823,-0.0833,-0.079,-0.0755,-0.0753,-0.0627,-0.0607,-0.0512,-0.0487,-0.0334,-0.0738,-0.0738,-0.0739,0,-0.1308,-0.1267,-0.1246,-0.1232,-0.1181,-0.1176,-0.116,-0.1125,-0.111,-0.1069,-0.1051,-0.0992,-0.0962,-0.09,-0.0826,-0.0824,-0.0748,-0.0738,-0.062,-0.0616,-0.0487,-0.047,-0.0305,-0.0682,-0.0682,-0.0682,-0.0682,0,-0.1341,-0.133,-0.1265,-0.1255,-0.1246,-0.1208,-0.1202,-0.1177,-0.1143,-0.1128,-0.1072,-0.1048,-0.0959,-0.0901,-0.0838,-0.0717,-0.0758,-0.0615,-0.0593,-0.0518,-0.0505,-0.0329,-0.0296,-0.0681,-0.0682,-0.0682,-0.0682,0,-0.1392,-0.1346,-0.1322,-0.1272,-0.1262,-0.126,-0.1227,-0.1222,-0.1187,-0.1168,-0.1156,-0.109,-0.1012,-0.0918,-0.0819,-0.0722,-0.0522,-0.0574,-0.0501,-0.0468,-0.0191,-0.0168,-0.0003,0.0073,-0.0438,-0.0435,-0.0433,0,-0.1406,-0.1393,-0.1342,-0.1335,-0.1313,-0.1299,-0.1292,-0.1251,-0.1243,-0.1196,-0.1191,-0.1109,-0.106,-0.0875,-0.0673,-0.0521,-0.0437,-0.0327,-0.0285,-0.0141,-0.0102,-0.0095,-0.0045,-0.0178,-0.0174,-0.0171,-0.0168,0,-0.1438,-0.1416,-0.1391,-0.1375,-0.1366,-0.1352,-0.1337,-0.1335,-0.1294,-0.1283,-0.1261,-0.1223,-0.0995,-0.0765,-0.0512,-0.0395,-0.0182,-0.0252,-0.0111,0.0122,0.015,0.0222,-0.025,-0.0138,-0.0141,-0.0144,-0.0145,-0.0146,-0.1462,-0.1454,-0.1421,-0.1414,-0.1407,-0.1407,-0.1409,-0.1401,-0.14,-0.1381,-0.1332,-0.1244,-0.0835,-0.0455,-0.031,0.0143,0.0038,0.0269,0.0278,0.0267,0.0382,-0.0027,0.0123,0.0122,0.0121,0.012,0.0119,0,-0.1488,-0.147,-0.1463,-0.1447,-0.1458,-0.1442,-0.144,-0.1447,-0.1469,-0.1408,-0.139,-0.0961,-0.0566,-0.0154,0.0459,0.0661,0.0686,0.0751,0.0792,0.0812,0.0463,0.0522,0.078,0.0779,0.0779,0.0779,0.0779,0.0779,-0.1496,-0.149,-0.1482,-0.1497,-0.1495,-0.1511,-0.1517,-0.1533,-0.1485,-0.1341,-0.1114,-0.0915,-0.0253,0.0538,0.1071,0.1123,0.1233,0.123,0.1242,0.1023,0.0979,0.0937,0.1006,0.136,0.136,0.1625,0.1627,0.1629]}],[{"header":{"parameterUnit":"m.s-1","parameterCategory":2,"la1":30.2991,"la2":30.254,"lo1":-89.0895,"lo2":-89.0444,"dy":0.0017,"dx":0.0017,"nx":28,"ny":28,"refTime":"2026-01-04T03:00:00:Z","depth":"2","parameterNumber":2,"parameterNumberName":"U-component_of_CURRENTS"},"data":[0,0,0,0,0,0,0,0,0,0,0,0,0,0,0,0,0,0,0,0,0,0,0,0,0,0,0,0,0,0,0,0,0,0,0,0,0,0,0,0,0,0,0,0,0,0,0,0,0,0,0,0,0,0,0,0,0,0,-0.1166,-0.1165,0,-0.11,-0.1099,-0.1098,-0.1097,-0.1098,-0.1099,-0.1099,-0.1048,-0.1046,-0.1043,0,0,0,0,0,0,0,0,0,0,0,0,0,-0.1211,-0.1211,-0.1166,-0.1165,-0.1164,-0.11,-0.1099,-0.1098,-0.1097,-0.1098,-0.1099,-0.11,-0.1049,-0.1046,-0.1043,0,0,0,0,0,0,0,0,0,0,0,0,0,-0.1172,-0.1211,-0.1166,-0.1157,-0.1155,-0.11,-0.1099,-0.1098,-0.1096,-0.1098,-0.1099,-0.11,-0.1049,-0.1046,-0.1043,-0.0994,0,0,-0.1032,-0.1031,0,0,0,0,0,0,0,0,-0.1174,-0.117,-0.1159,-0.1157,-0.1156,-0.1109,-0.1096,-0.1064,-0.1096,-0.1117,-0.1099,-0.1101,-0.1069,-0.1064,-0.1047,-0.0991,-0.0989,-0.1032,-0.103,-0.1029,-0.1028,0,0,0,0,0,0,0,-0.1177,-0.1173,-0.1138,-0.1158,-0.1156,-0.1129,-0.1125,-0.1089,-0.1086,-0.1116,-0.1116,-0.111,-0.1069,-0.105,-0.1046,-0.0988,-0.1032,-0.1029,-0.1027,-0.1026,-0.0955,-0.0955,0,0,0,0,0,0,-0.119,-0.1175,-0.1141,-0.1137,-0.117,-0.1127,-0.1123,-0.1122,-0.1086,-0.1082,-0.1109,-0.111,-0.1055,-0.105,-0.1044,-0.1063,-0.1029,-0.1026,-0.1024,-0.0954,-0.0955,-0.0955,0,0,0,0,0,0,-0.1191,-0.1188,-0.1143,-0.1155,-0.1148,-0.1126,-0.1123,-0.112,-0.1116,-0.108,-0.1077,-0.1112,-0.1056,-0.1049,-0.1028,-0.1058,-0.1024,-0.1021,-0.0954,-0.0954,-0.0955,-0.105,0,0,0,0,0,0,-0.1193,-0.1189,-0.1188,-0.1156,-0.1148,-0.1123,-0.1122,-0.1117,-0.111,-0.1112,-0.1081,-0.1077,-0.1057,-0.1033,-0.1025,-0.1053,-0.1018,-0.0954,-0.0954,-0.0955,-0.1047,-0.1054,-0.1059,0,0,0,0,0,-0.1195,-0.1187,-0.1189,-0.1185,-0.115,-0.1123,-0.1116,-0.1104,-0.1109,-0.1106,-0.1091,-0.1079,-0.103,-0.103,-0.102,-0.1048,-0.0954,-0.0954,-0.0955,-0.1044,-0.1052,-0.1059,0,0,0,0,0,0,-0.1198,-0.1185,-0.1187,-0.1174,-0.1159,-0.1124,-0.1113,-0.1109,-0.1091,-0.1096,-0.1071,-0.1065,-0.1057,-0.1029,-0.1031,-0.1026,-0.0993,-0.0991,-0.1064,-0.1071,-0.1078,-0.1083,-0.1016,0,0,0,0,0,-0.1201,-0.1198,-0.118,-0.117,-0.1164,-0.1142,-0.1129,-0.1124,-0.1104,-0.1098,-0.1081,-0.1061,-0.1044,-0.1042,-0.1011,-0.1003,-0.1002,-0.1015,-0.1022,-0.1027,-0.1023,-0.1044,-0.1053,-0.0956,-0.0956,-0.0956,0,0,-0.1196,-0.119,-0.1187,-0.1171,-0.1156,-0.1149,-0.1138,-0.1124,-0.113,-0.1093,-0.1094,-0.1072,-0.1042,-0.104,-0.1036,-0.1028,-0.106,-0.1028,-0.1033,-0.1025,-0.1046,-0.1056,-0.1064,-0.0956,-0.0956,-0.0956,0,0,-0.1181,-0.1185,-0.1177,-0.1171,-0.1158,-0.1152,-0.1155,-0.1134,-0.114,-0.1127,-0.1115,-0.1114,-0.1074,-0.1078,-0.107,-0.1086,-0.1083,-0.1079,-0.1129,-0.1151,-0.116,-0.1167,-0.1211,-0.1222,-0.1095,-0.1095,-0.1095,0,-0.1177,-0.1168,-0.1168,-0.1162,-0.1161,-0.1161,-0.1157,-0.116,-0.1139,-0.1152,-0.1139,-0.1118,-0.1095,-0.1118,-0.1127,-0.1105,-0.1119,-0.1111,-0.1163,-0.117,-0.1176,-0.1219,-0.1229,-0.1099,-0.1099,-0.1098,-0.1098,0,-0.1158,-0.1155,-0.1149,-0.1155,-0.1158,-0.115,-0.1164,-0.1178,-0.1186,-0.1191,-0.1208,-0.1182,-0.1174,-0.1179,-0.1155,-0.1197,-0.1195,-0.1164,-0.1153,-0.1193,-0.1234,-0.1244,-0.1106,-0.1104,-0.1103,-0.1102,0,0,-0.1134,-0.1136,-0.1136,-0.114,-0.1156,-0.1154,-0.1188,-0.1213,-0.1245,-0.1244,-0.1282,-0.1267,-0.1263,-0.1252,-0.1242,-0.1269,-0.1336,-0.1241,-0.124,-0.1302,-0.1408,-0.1298,-0.1298,-0.1321,-0.1322,-0.1323,-0.1433,0,-0.1117,-0.1107,-0.1122,-0.1128,-0.1124,-0.116,-0.1192,-0.1226,-0.1256,-0.1294,-0.1312,-0.1321,-0.1293,-0.1294,-0.132,-0.1317,-0.1359,-0.131,-0.1343,-0.1344,-0.1256,-0.1303,-0.1173,-0.1248,-0.1442,-0.1443,-0.1444,0,-0.1094,-0.1091,-0.1088,-0.112,-0.1125,-0.1141,-0.1208,-0.1233,-0.1305,-0.1328,-0.1366,-0.1374,-0.1416,-0.1375,-0.1428,-0.1399,-0.1407,-0.1415,-0.1419,-0.1282,-0.125,-0.123,-0.1258,-0.146,-0.1459,-0.1458,-0.1457,0,-0.1069,-0.1074,-0.1076,-0.1082,-0.1116,-0.1139,-0.1168,-0.1238,-0.1273,-0.1347,-0.138,-0.1433,-0.1451,-0.1475,-0.1487,-0.146,-0.1552,-0.1514,-0.1439,-0.1434,-0.1307,-0.1286,-0.1558,-0.1558,-0.1558,-0.1557,-0.1557,0,-0.1045,-0.1045,-0.1061,-0.1059,-0.1077,-0.1114,-0.1156,-0.1201,-0.1274,-0.1323,-0.1381,-0.1422,-0.1471,-0.1526,-0.1531,-0.1518,-0.1589,-0.1454,-0.1448,-0.1336,-0.1317,-0.147,-0.1459,-0.1561,-0.1561,-0.156,-0.1559,0,-0.1013,-0.1022,-0.1021,-0.1049,-0.1059,-0.107,-0.1129,-0.1166,-0.1236,-0.1305,-0.1327,-0.1427,-0.1485,-0.155,-0.1605,-0.1553,-0.1565,-0.1548,-0.1422,-0.1396,-0.143,-0.1422,-0.1467,-0.1464,-0.1462,-0.1459,-0.1458,0,-0.0994,-0.0986,-0.1002,-0.1004,-0.1013,-0.1035,-0.106,-0.1131,-0.1174,-0.1295,-0.1326,-0.1419,-0.1457,-0.1516,-0.1469,-0.1478,-0.1549,-0.1345,-0.1236,-0.1428,-0.1418,-0.1414,-0.141,-0.1143,-0.1138,-0.1135,-0.1132,0,-0.0953,-0.0962,-0.0962,-0.0958,-0.0971,-0.0993,-0.103,-0.1061,-0.1157,-0.1217,-0.1299,-0.1338,-0.1375,-0.1306,-0.13,-0.1275,-0.1322,-0.1266,-0.1528,-0.1153,-0.112,-0.1111,-0.1118,-0.1101,-0.1104,-0.1106,-0.1108,-0.1109,-0.092,-0.0912,-0.091,-0.0905,-0.0923,-0.0941,-0.0942,-0.1003,-0.1053,-0.1114,-0.1198,-0.1197,-0.1178,-0.1064,-0.1046,-0.1027,-0.1094,-0.1036,-0.1049,-0.1065,-0.0974,-0.0934,-0.0867,-0.0869,-0.087,-0.0872,-0.0873,0,-0.0857,-0.086,-0.0858,-0.0846,-0.0842,-0.0875,-0.0916,-0.0908,-0.094,-0.0982,-0.1015,-0.0882,-0.0827,-0.0859,-0.0754,-0.0709,-0.0718,-0.0701,-0.0724,-0.0753,-0.0779,-0.0676,-0.049,-0.0489,-0.0489,-0.0488,0,0,-0.0823,-0.0798,-0.0797,-0.0758,-0.0763,-0.0743,-0.0755,-0.0757,-0.0765,-0.0734,-0.0711,-0.0733,-0.0766,-0.06,-0.0572,-0.0532,-0.0639,-0.05,-0.0799,-0.0851,-0.0877,-0.0954,-0.0824,0,0,0,0,0]},{"header":{"parameterUnit":"m.s-1","parameterCategory":2,"la1":30.2991,"la2":30.254,"lo1":-89.0895,"lo2":-89.0444,"dy":0.0017,"dx":0.0017,"nx":28,"ny":28,"refTime":"2026-01-04T03:00:00:Z","depth":"2","parameterNumber":3,"parameterNumberName":"V-component_of_CURRENTS"},"data":[0,0,0,0,0,0,0,0,0,0,0,0,0,0,0,0,0,0,0,0,0,0,0,0,0,0,0,0,0,0,0,0,0,0,0,0,0,0,0,0,0,0,0,0,0,0,0,0,0,0,0,0,0,0,0,0,0,0,0.0451,0.0451,0,0.0461,0.0461,0.0461,0.0451,0.0451,0.045,0.045,0.0441,0.0442,0.0442,0,0,0,0,0,0,0,0,0,0,0,0,0,0.0431,0.0432,0.0451,0.0451,0.0451,0.0461,0.0461,0.0461,0.0451,0.0451,0.045,0.045,0.0441,0.0442,0.0442,0,0,0,0,0,0,0,0,0,0,0,0,0,0.0441,0.0432,0.0451,0.0448,0.0447,0.0461,0.0461,0.0461,0.0451,0.0451,0.045,0.045,0.0441,0.0442,0.0442,0.0455,0,0,0.0442,0.0442,0,0,0,0,0,0,0,0,0.044,0.0441,0.0448,0.0448,0.0448,0.0454,0.0451,0.0458,0.0452,0.045,0.045,0.0449,0.0444,0.0444,0.0448,0.0455,0.0454,0.0442,0.0443,0.0443,0.0443,0,0,0,0,0,0,0,0.0439,0.0441,0.0455,0.0448,0.0448,0.0448,0.0448,0.0452,0.045,0.045,0.0449,0.045,0.0444,0.0448,0.0448,0.0454,0.0442,0.0443,0.0443,0.0443,0.0445,0.0445,0,0,0,0,0,0,0.0438,0.044,0.0455,0.0455,0.0442,0.0449,0.0449,0.0453,0.0451,0.045,0.0451,0.045,0.0448,0.0447,0.0447,0.0442,0.0443,0.0443,0.0443,0.0445,0.0445,0.0445,0,0,0,0,0,0,0.0438,0.044,0.0454,0.0448,0.045,0.0449,0.0454,0.0453,0.0441,0.0451,0.045,0.0437,0.0447,0.0447,0.0441,0.0442,0.0443,0.0443,0.0445,0.0445,0.0445,0.0444,0,0,0,0,0,0,0.0437,0.044,0.0433,0.0448,0.045,0.0451,0.0454,0.0454,0.0444,0.0442,0.0439,0.0439,0.0447,0.0441,0.0441,0.0442,0.0443,0.0446,0.0445,0.0445,0.0444,0.0444,0.0444,0,0,0,0,0,0.0437,0.043,0.0433,0.0434,0.0444,0.045,0.0451,0.0449,0.0443,0.0436,0.0437,0.0438,0.044,0.0441,0.0441,0.0442,0.0446,0.0445,0.0445,0.0444,0.0444,0.0444,0,0,0,0,0,0,0.0418,0.0429,0.0432,0.0429,0.0435,0.0448,0.0437,0.0441,0.0436,0.0426,0.0437,0.0437,0.0433,0.0436,0.0436,0.0443,0.0443,0.0443,0.0442,0.0442,0.0442,0.0428,0.0443,0,0,0,0,0,0.0412,0.0406,0.0423,0.0417,0.0417,0.0425,0.0423,0.0423,0.0426,0.0422,0.0423,0.0426,0.0437,0.0436,0.044,0.0442,0.0453,0.0443,0.0443,0.0443,0.0432,0.0468,0.047,0.0445,0.0445,0.0445,0,0,0.0401,0.0407,0.0402,0.0411,0.0412,0.041,0.0421,0.0412,0.0411,0.0423,0.041,0.0421,0.0436,0.0441,0.044,0.0441,0.0454,0.0443,0.0443,0.0432,0.0468,0.047,0.0473,0.0445,0.0445,0.0445,0,0,0.0375,0.0382,0.0367,0.0371,0.0371,0.0383,0.0377,0.0384,0.0385,0.0381,0.0396,0.0411,0.0407,0.0435,0.0447,0.0448,0.0451,0.0439,0.0428,0.0463,0.0466,0.0468,0.0479,0.0483,0.044,0.044,0.044,0,0.0359,0.0347,0.0363,0.0353,0.0349,0.0369,0.0354,0.0367,0.037,0.0376,0.0369,0.0397,0.0411,0.0445,0.0441,0.045,0.0452,0.043,0.0464,0.0466,0.0469,0.048,0.0484,0.044,0.044,0.044,0.044,0,0.0327,0.0314,0.0305,0.0302,0.0305,0.0292,0.0317,0.0318,0.0321,0.0339,0.0357,0.0388,0.0402,0.0419,0.0425,0.0454,0.0443,0.046,0.0466,0.0471,0.0482,0.0486,0.044,0.044,0.044,0.044,0,0,0.0293,0.0283,0.0276,0.0261,0.0273,0.027,0.0279,0.0296,0.0298,0.032,0.033,0.037,0.0382,0.0395,0.0423,0.0457,0.0481,0.0452,0.0453,0.0464,0.053,0.0553,0.0559,0.0498,0.0498,0.0499,0.0529,0,0.0256,0.0222,0.0233,0.0201,0.0185,0.0212,0.0218,0.0241,0.0263,0.0282,0.0341,0.0351,0.0377,0.0375,0.0419,0.0463,0.0491,0.047,0.0521,0.0522,0.0544,0.0565,0.0485,0.0508,0.0533,0.0534,0.0535,0,0.0217,0.0199,0.0159,0.0144,0.0139,0.0129,0.0141,0.0149,0.0203,0.0216,0.0259,0.0295,0.035,0.0366,0.0454,0.043,0.0465,0.0509,0.0512,0.0534,0.0553,0.0508,0.0515,0.0541,0.0541,0.054,0.054,0,0.0175,0.0145,0.0107,0.0102,0.0097,0.0084,0.0083,0.0122,0.0127,0.017,0.0173,0.0254,0.0271,0.035,0.0432,0.0429,0.0528,0.0545,0.0605,0.0606,0.0549,0.0545,0.0602,0.0602,0.0601,0.0601,0.0601,0,0.0133,0.0098,0.0077,0.0055,0.0015,0.0028,0.0003,0.0021,0.0049,0.0053,0.0122,0.0143,0.0261,0.0337,0.0419,0.0524,0.0519,0.0601,0.0622,0.0546,0.0541,0.0578,0.0575,0.0603,0.0602,0.0602,0.0602,0,0.009,0.0075,0.003,0.0004,-0.0009,-0.004,-0.0059,-0.0065,-0.0046,-0.0036,-0.0033,0.005,0.014,0.0275,0.0403,0.0493,0.0604,0.0638,0.0532,0.0541,0.0656,0.0653,0.0708,0.0709,0.071,0.0711,0.0711,0,0.0065,0.0035,-0.0014,-0.0043,-0.0064,-0.0104,-0.0125,-0.0116,-0.0117,-0.0089,-0.0085,-0.0009,0.0059,0.0266,0.0412,0.057,0.061,0.0615,0.0619,0.0656,0.0671,0.0665,0.066,0.0532,0.0531,0.053,0.053,0,0.0022,-0.0001,-0.0036,-0.0097,-0.0138,-0.0174,-0.0205,-0.0217,-0.0202,-0.0202,-0.018,-0.013,0.0043,0.019,0.0405,0.0497,0.0592,0.0609,0.0677,0.053,0.0497,0.0509,0.0509,0.0524,0.0525,0.0525,0.0525,0.0526,-0.0013,-0.0048,-0.0098,-0.0155,-0.0196,-0.024,-0.0277,-0.0291,-0.0311,-0.0304,-0.0244,-0.0174,-0.0014,0.0254,0.0395,0.053,0.0554,0.0608,0.0607,0.0607,0.0594,0.0566,0.0602,0.0603,0.0604,0.0604,0.0605,0,-0.0051,-0.0098,-0.0151,-0.0216,-0.0262,-0.0283,-0.0325,-0.035,-0.0382,-0.0343,-0.0316,-0.0167,0.0002,0.0183,0.0362,0.0504,0.0477,0.0547,0.0478,0.0482,0.0486,0.0465,0.044,0.044,0.044,0.044,0,0,-0.0074,-0.014,-0.0167,-0.0259,-0.031,-0.0382,-0.0414,-0.0437,-0.0416,-0.0399,-0.0342,-0.0223,-0.0006,0.0108,0.0258,0.035,0.0386,0.0357,0.0469,0.0371,0.0374,0.0496,0.0466,0,0,0,0,0]}],[{"header":{"parameterUnit":"m.s-1","parameterCategory":2,"la1":30.2991,"la2":30.254,"lo1":-89.0895,"lo2":-89.0444,"dy":0.0017,"dx":0.0017,"nx":28,"ny":28,"refTime":"2026-01-04T03:00:00:Z","depth":"4","parameterNumber":2,"parameterNumberName":"U-component_of_CURRENTS"},"data":[0,0,0,0,0,0,0,0,0,0,0,0,0,0,0,0,0,0,0,0,0,0,0,0,0,0,0,0,0,0,0,0,0,0,0,0,0,0,0,0,0,0,0,0,0,0,0,0,0,0,0,0,0,0,0,0,0,0,-0.0617,-0.0617,0,-0.0625,-0.0625,-0.0625,-0.0625,-0.0625,-0.0625,-0.0624,-0.0641,-0.0642,-0.0642,0,0,0,0,0,0,0,0,0,0,0,0,0,-0.0639,-0.0638,-0.0617,-0.0617,-0.0617,-0.0625,-0.0625,-0.0626,-0.0625,-0.0625,-0.0624,-0.0624,-0.0641,-0.0642,-0.0642,0,0,0,0,0,0,0,0,0,0,0,0,0,-0.0637,-0.0638,-0.0617,-0.0617,-0.0617,-0.0625,-0.0625,-0.0626,-0.0625,-0.0625,-0.0624,-0.0624,-0.0641,-0.0641,-0.0642,-0.0654,0,0,-0.0645,-0.0646,0,0,0,0,0,0,0,0,-0.0637,-0.0636,-0.0617,-0.0617,-0.0617,-0.0623,-0.0639,-0.0635,-0.0625,-0.0623,-0.0624,-0.0624,-0.0636,-0.0637,-0.064,-0.0654,-0.0655,-0.0645,-0.0646,-0.0646,-0.0646,0,0,0,0,0,0,0,-0.0637,-0.0636,-0.0621,-0.0617,-0.0617,-0.063,-0.0629,-0.0639,-0.0631,-0.0623,-0.0623,-0.0623,-0.0636,-0.0639,-0.064,-0.0655,-0.0645,-0.0646,-0.0647,-0.0647,-0.0718,-0.0719,0,0,0,0,0,0,-0.0633,-0.0636,-0.062,-0.0621,-0.0626,-0.063,-0.0629,-0.0622,-0.0631,-0.0632,-0.0623,-0.0623,-0.0638,-0.0639,-0.0641,-0.0694,-0.0646,-0.0647,-0.0648,-0.0717,-0.0718,-0.072,0,0,0,0,0,0,-0.0633,-0.0631,-0.062,-0.0629,-0.0628,-0.0629,-0.0622,-0.0622,-0.0632,-0.0631,-0.0632,-0.0633,-0.0637,-0.064,-0.0666,-0.0693,-0.0647,-0.0648,-0.0715,-0.0717,-0.0719,-0.0774,0,0,0,0,0,0,-0.0634,-0.0631,-0.063,-0.0628,-0.0627,-0.0631,-0.0622,-0.0623,-0.0632,-0.0632,-0.064,-0.0641,-0.0637,-0.0664,-0.0666,-0.0693,-0.0649,-0.0713,-0.0716,-0.0718,-0.0771,-0.0778,-0.0784,0,0,0,0,0,-0.0634,-0.0627,-0.0629,-0.0628,-0.0623,-0.0631,-0.0632,-0.0633,-0.0633,-0.0641,-0.0653,-0.0641,-0.0682,-0.0666,-0.0668,-0.0696,-0.0712,-0.0715,-0.0718,-0.0768,-0.0776,-0.0784,0,0,0,0,0,0,-0.0634,-0.0626,-0.0629,-0.0619,-0.063,-0.0631,-0.0633,-0.064,-0.0655,-0.0656,-0.0658,-0.066,-0.0693,-0.0688,-0.0671,-0.0724,-0.0695,-0.0699,-0.0732,-0.074,-0.0746,-0.0747,-0.065,0,0,0,0,0,-0.0634,-0.0626,-0.063,-0.0625,-0.0628,-0.0635,-0.064,-0.0645,-0.0655,-0.0661,-0.0677,-0.069,-0.0707,-0.0717,-0.0729,-0.0758,-0.0742,-0.0778,-0.0784,-0.079,-0.0792,-0.0788,-0.0795,-0.073,-0.0729,-0.0729,0,0,-0.0632,-0.0627,-0.0623,-0.0625,-0.0629,-0.0646,-0.0637,-0.0646,-0.0674,-0.0661,-0.0707,-0.0714,-0.072,-0.0755,-0.0769,-0.0754,-0.0803,-0.0794,-0.0798,-0.0798,-0.0792,-0.0798,-0.0804,-0.0732,-0.0731,-0.0731,0,0,-0.0623,-0.0621,-0.0615,-0.0629,-0.0639,-0.0652,-0.0659,-0.0678,-0.0697,-0.0737,-0.0739,-0.076,-0.0793,-0.0803,-0.081,-0.0859,-0.0837,-0.0869,-0.0905,-0.0901,-0.0906,-0.091,-0.0905,-0.0909,-0.0873,-0.0873,-0.0873,0,-0.0624,-0.0615,-0.0618,-0.0626,-0.0639,-0.0659,-0.0673,-0.0703,-0.0736,-0.0758,-0.0757,-0.0811,-0.0814,-0.0852,-0.0874,-0.0873,-0.0869,-0.0873,-0.0909,-0.0913,-0.0916,-0.091,-0.0912,-0.0876,-0.0876,-0.0876,-0.0875,0,-0.0614,-0.062,-0.0619,-0.064,-0.0661,-0.0673,-0.0715,-0.0752,-0.0781,-0.081,-0.0861,-0.0871,-0.0897,-0.091,-0.091,-0.0945,-0.0934,-0.0916,-0.0886,-0.0926,-0.0917,-0.0919,-0.0881,-0.088,-0.0879,-0.0878,0,0,-0.0579,-0.0605,-0.0607,-0.0623,-0.0668,-0.0682,-0.0742,-0.0792,-0.0831,-0.0878,-0.0918,-0.096,-0.0967,-0.0975,-0.0979,-0.0986,-0.1008,-0.097,-0.0969,-0.0961,-0.1006,-0.0955,-0.0952,-0.0999,-0.1,-0.1,-0.0992,0,-0.0571,-0.0581,-0.0606,-0.0641,-0.0654,-0.0706,-0.0761,-0.0819,-0.0868,-0.0921,-0.0949,-0.0987,-0.0993,-0.1003,-0.1017,-0.1007,-0.1015,-0.1012,-0.0973,-0.0972,-0.0917,-0.0953,-0.1002,-0.0994,-0.0994,-0.0994,-0.0994,0,-0.0551,-0.0563,-0.0586,-0.0641,-0.0652,-0.0697,-0.0777,-0.0823,-0.0909,-0.0946,-0.0995,-0.1017,-0.1053,-0.1038,-0.1053,-0.1054,-0.104,-0.1029,-0.1027,-0.096,-0.0924,-0.0944,-0.0997,-0.0997,-0.0997,-0.0997,-0.0996,0,-0.051,-0.0549,-0.0566,-0.0586,-0.0658,-0.0699,-0.0745,-0.0836,-0.0874,-0.0958,-0.0988,-0.1041,-0.1054,-0.1058,-0.1057,-0.1055,-0.1057,-0.1039,-0.0981,-0.0977,-0.0999,-0.0995,-0.104,-0.104,-0.104,-0.104,-0.104,0,-0.0481,-0.0497,-0.0557,-0.0568,-0.0626,-0.0676,-0.0735,-0.0807,-0.0874,-0.0911,-0.0991,-0.1016,-0.1059,-0.1072,-0.1065,-0.1034,-0.1061,-0.0993,-0.0974,-0.1024,-0.1023,-0.1,-0.0996,-0.104,-0.104,-0.104,-0.104,0,-0.0433,-0.0466,-0.0493,-0.0568,-0.0609,-0.0646,-0.073,-0.0748,-0.0839,-0.0884,-0.0907,-0.0996,-0.1019,-0.1053,-0.1052,-0.1028,-0.1007,-0.0985,-0.1047,-0.103,-0.0927,-0.0926,-0.0916,-0.0914,-0.0913,-0.0911,-0.091,0,-0.041,-0.0414,-0.049,-0.0524,-0.0568,-0.0626,-0.0656,-0.0735,-0.0754,-0.0858,-0.0866,-0.0929,-0.0977,-0.0945,-0.0986,-0.098,-0.0967,-0.0953,-0.094,-0.0933,-0.0916,-0.0917,-0.0917,-0.0908,-0.0907,-0.0907,-0.0907,0,-0.0368,-0.0392,-0.0419,-0.0486,-0.053,-0.0549,-0.0604,-0.0621,-0.0689,-0.0768,-0.0807,-0.084,-0.0869,-0.0896,-0.0909,-0.0899,-0.0963,-0.0936,-0.0939,-0.0927,-0.0923,-0.0907,-0.091,-0.0901,-0.0902,-0.0902,-0.0903,0,-0.0345,-0.0351,-0.0387,-0.0442,-0.0482,-0.0476,-0.0511,-0.0534,-0.0565,-0.0693,-0.0693,-0.0774,-0.0842,-0.0853,-0.0856,-0.0859,-0.0844,-0.0812,-0.0821,-0.0827,-0.0806,-0.079,-0.0713,0,0,0,0,0,-0.0316,-0.0309,-0.0345,-0.0379,-0.0399,-0.042,-0.0474,-0.0497,-0.0576,-0.0576,-0.0641,-0.0669,-0.071,-0.0754,-0.0738,-0.0817,-0.0844,-0.0797,-0.081,-0.0871,-0.0878,-0.0864,0,0,0,0,0,0,-0.0298,-0.0316,-0.0318,-0.0302,-0.0309,-0.0307,-0.0334,-0.0386,-0.0407,-0.0509,-0.0535,-0.0611,-0.0659,-0.0696,-0.0714,-0.0728,-0.072,-0.0849,-0.0847,-0.0868,-0.0874,-0.0879,-0.0867,0,0,0,0,0]},{"header":{"parameterUnit":"m.s-1","parameterCategory":2,"la1":30.2991,"la2":30.254,"lo1":-89.0895,"lo2":-89.0444,"dy":0.0017,"dx":0.0017,"nx":28,"ny":28,"refTime":"2026-01-04T03:00:00:Z","depth":"4","parameterNumber":3,"parameterNumberName":"V-component_of_CURRENTS"},"data":[0,0,0,0,0,0,0,0,0,0,0,0,0,0,0,0,0,0,0,0,0,0,0,0,0,0,0,0,0,0,0,0,0,0,0,0,0,0,0,0,0,0,0,0,0,0,0,0,0,0,0,0,0,0,0,0,0,0,0.002,0.0019,0,0.0004,0.0004,0.0004,0.0028,0.0029,0.0029,0.003,0.0078,0.0079,0.008,0,0,0,0,0,0,0,0,0,0,0,0,0,0.0097,0.0096,0.002,0.0019,0.0019,0.0004,0.0004,0.0004,0.0028,0.0029,0.0029,0.003,0.0078,0.0079,0.008,0,0,0,0,0,0,0,0,0,0,0,0,0,0.0073,0.0095,0.002,0.0027,0.0027,0.0004,0.0004,0.0004,0.0028,0.0029,0.003,0.003,0.0078,0.0079,0.008,0.0069,0,0,0.0083,0.0084,0,0,0,0,0,0,0,0,0.0075,0.0071,0.0026,0.0026,0.0027,0.0016,0.0049,0.0028,0.0028,0.0031,0.003,0.0031,0.0061,0.0064,0.0062,0.0071,0.0073,0.0083,0.0084,0.0085,0.0085,0,0,0,0,0,0,0,0.0076,0.0072,0.0016,0.0026,0.0026,0.004,0.0038,0.0045,0.0044,0.003,0.0031,0.0025,0.0062,0.006,0.0063,0.0074,0.0083,0.0084,0.0085,0.0085,0.0114,0.0114,0,0,0,0,0,0,0.007,0.0073,0.0017,0.0015,0.005,0.0037,0.0035,0.0021,0.0043,0.0046,0.0024,0.0026,0.0058,0.0062,0.0065,0.0083,0.0084,0.0086,0.0086,0.0114,0.0114,0.0114,0,0,0,0,0,0,0.0071,0.0065,0.0017,0.0042,0.0037,0.0035,0.0019,0.002,0.0022,0.0037,0.0042,0.0025,0.0059,0.0063,0.0078,0.0084,0.0086,0.0087,0.0114,0.0114,0.0114,0.01,0,0,0,0,0,0,0.0074,0.0065,0.0056,0.0041,0.0035,-0.0002,0.0018,0.0019,0.0015,0.0017,0.0039,0.0044,0.006,0.0077,0.0079,0.0086,0.0088,0.0114,0.0114,0.0114,0.01,0.01,0.0099,0,0,0,0,0,0.0076,0.0051,0.0055,0.0049,0.0021,-0.0004,-0.0005,-0.0001,0.0014,0.0006,0.0031,0.0043,0.008,0.0077,0.0081,0.0087,0.0114,0.0114,0.0114,0.0101,0.01,0.0099,0,0,0,0,0,0,0.0078,0.005,0.0055,0.0023,0.0011,-0.0001,-0.0014,-0.0004,0.0007,0.0013,0.0041,0.0047,0.0065,0.0074,0.0071,0.0096,0.01,0.0101,0.0089,0.0088,0.0088,0.0083,0.0089,0,0,0,0,0,0.0074,0.0049,0.0031,0.0007,-0.0003,-0.0005,-0.0013,-0.0011,-0.0006,-0.0001,0.0019,0.0042,0.0066,0.0076,0.0092,0.01,0.0126,0.0108,0.0107,0.0106,0.0105,0.0155,0.0159,0.0115,0.0115,0.0115,0,0,0.0069,0.0049,0.0037,0.0006,-0.0004,-0.0024,-0.0008,-0.0028,-0.003,0.0003,0.0011,0.0038,0.0067,0.0083,0.0091,0.0093,0.0132,0.0106,0.0106,0.0105,0.0156,0.016,0.0164,0.0115,0.0115,0.0115,0,0,0.0037,0.0026,-0.0006,-0.002,-0.0043,-0.0042,-0.0048,-0.0057,-0.0046,-0.0042,-0.0006,0.0024,0.0043,0.0075,0.0092,0.0095,0.0127,0.0101,0.0094,0.0143,0.0147,0.0151,0.0188,0.0196,0.01,0.01,0.01,0,0.0035,-0.0009,-0.0017,-0.0051,-0.0066,-0.0051,-0.0081,-0.007,-0.0066,-0.0051,-0.0044,0.0016,0.004,0.0082,0.0087,0.0094,0.0125,0.0095,0.0143,0.0147,0.0152,0.0189,0.0197,0.01,0.01,0.01,0.01,0,-0.0019,-0.0051,-0.0074,-0.0106,-0.0119,-0.0145,-0.0137,-0.0131,-0.0112,-0.009,-0.005,-0.001,0.0028,0.0046,0.0067,0.0115,0.0127,0.0137,0.0145,0.0155,0.0194,0.0203,0.0099,0.0099,0.0099,0.0099,0,0,-0.0033,-0.0099,-0.0105,-0.013,-0.0151,-0.0169,-0.0168,-0.016,-0.0149,-0.0115,-0.0093,-0.0034,0.0003,0.0026,0.0068,0.0113,0.0172,0.0137,0.014,0.0174,0.0279,0.0234,0.024,0.0197,0.0198,0.0199,0.0292,0,-0.007,-0.0143,-0.0162,-0.0211,-0.0245,-0.0233,-0.0235,-0.0216,-0.0187,-0.0157,-0.0087,-0.0051,-0.0007,0.0015,0.0071,0.0146,0.0196,0.0146,0.0263,0.0266,0.0226,0.0249,0.0204,0.0299,0.0301,0.0303,0.0304,0,-0.0113,-0.0158,-0.0222,-0.0268,-0.028,-0.0299,-0.0294,-0.0292,-0.0236,-0.0211,-0.0148,-0.0094,-0.001,0.0015,0.0159,0.0128,0.0201,0.0259,0.0264,0.0233,0.0239,0.0288,0.0321,0.032,0.0318,0.0317,0.0316,0,-0.012,-0.0194,-0.0246,-0.0264,-0.0309,-0.0326,-0.0335,-0.0304,-0.0296,-0.0235,-0.0215,-0.0111,-0.006,0.0051,0.0176,0.0173,0.0326,0.0335,0.0367,0.0364,0.0383,0.0378,0.0435,0.0435,0.0434,0.0434,0.0434,0,-0.0152,-0.0192,-0.0256,-0.0285,-0.0335,-0.0351,-0.0372,-0.0363,-0.0336,-0.0313,-0.0237,-0.0192,-0.0046,0.0059,0.017,0.0294,0.0327,0.0369,0.0388,0.0374,0.0367,0.039,0.0383,0.0438,0.0437,0.0436,0.0436,0,-0.0157,-0.02,-0.0261,-0.0321,-0.0346,-0.0374,-0.0412,-0.041,-0.0387,-0.0358,-0.0339,-0.0237,-0.0105,0.0035,0.0212,0.0276,0.0401,0.0437,0.0406,0.0421,0.0408,0.04,0.0478,0.0477,0.0477,0.0476,0.0476,0,-0.0171,-0.0206,-0.0284,-0.0323,-0.0358,-0.0404,-0.0427,-0.0431,-0.0422,-0.0376,-0.0353,-0.0244,-0.0158,0.0059,0.0195,0.0385,0.0409,0.0459,0.044,0.0404,0.0414,0.0407,0.04,0.0475,0.0474,0.0474,0.0474,0,-0.0192,-0.0214,-0.026,-0.0337,-0.0383,-0.0426,-0.0458,-0.046,-0.0442,-0.0428,-0.035,-0.0248,-0.0112,0.0051,0.0189,0.033,0.0415,0.0453,0.0455,0.0438,0.0401,0.041,0.0404,0.0472,0.0472,0.0473,0.0473,0,-0.0197,-0.0224,-0.028,-0.0339,-0.0401,-0.043,-0.0452,-0.0443,-0.0437,-0.0391,-0.0363,-0.0225,-0.0145,0.0023,0.016,0.0277,0.0303,0.0328,0.0338,0.0341,0.0263,0.0194,0.0222,0,0,0,0,0,-0.0198,-0.0221,-0.0281,-0.034,-0.0395,-0.0421,-0.0461,-0.0467,-0.0456,-0.0405,-0.0387,-0.0258,-0.0081,-0.0,0.0113,0.0147,0.0321,0.0278,0.0355,0.046,0.0462,0.0388,0,0,0,0,0,0,-0.0203,-0.0248,-0.0269,-0.032,-0.0352,-0.0399,-0.042,-0.0418,-0.0389,-0.0373,-0.0269,-0.0239,-0.0053,-0.0125,0.0121,0.0153,0.0209,0.0362,0.0363,0.0458,0.0461,0.0463,0.0388,0,0,0,0,0]}]]